SL-8 DEB, 1618

Orbit data source: Space-Track

SL-8 DEB, 1618 is space debris in LEO originally from a launch on Sat, 18 Sep 1965 UTC launched from the Tyuratam Missile And Space Complex (TTMTR). Debris objects in space refer to the collection of defunct objects orbiting the Earth. Examples of debris include non-operational satellites, rocket bodies, and fragments generated from explosions, collisions, or faulty payload assembly.

Loading next visibility...
Identifier
1618, 1965-073K
Orbit
LEO
Country
Flag of CISCIS
Related business
Manufacturer
Unknown
Mission
Spacecraft
Bus & Motor
Unknown
Mass
Unknown
Launch date (UTC)
1965-09-18 (61 years ago)
Launch vehicle
Unknown
Launch site
Tyuratam Missile And Space Complex (TTMTR)
Object type
Payload
Rocket body
Debris
Shape & HBR
Unknown shape, 0.2 m
Radar Cross Section
Medium (>0.1 m² and <1 m²)

Expand to show TLE details & history
Last TLE update: 22 hours ago

TLE from 22 hours ago
0 SL-8 DEB
1 01618U 65073K   26174.29612104  .00000101  00000-0  14783-2 0  9999
2 01618  56.1748 132.7618 0224622 267.7125 243.9560 12.30410744723866
Epoch: 2026-06-23T07:06Z
TLE epoch observation values (Epoch: 2026-06-23T07:06:24.857Z)
Latitude
25.08344°
Longitude
-83.49994°
Altitude
1,630.086 km
Speed
7.023 km/s
True Right ascension
19h 38m 17s
True Declination
24° 57' 58"
Sunlit
Object was in partial shadow at epoch
Visualization orbit readout
Latitude
Unknown
Longitude
Unknown
Altitude
Unknown
Speed
Unknown
Apparent Right ascension
Unknown
Apparent Declination
Unknown
Sunlit
N/A
Visualization observer readout
Local Sidereal Time
16:40:15
Azimuth
Unknown
Elevation
Unknown
Doppler factor
Unknown
Orbital elements
Apogee altitude
1,725.349 km
Perigee altitude
1,369.303 km
Semi-major axis
7,925.463 km
Eccentricity
0.02246
Inclination
56.1748°
RAAN
132.7618°
Arg. of periapsis
267.7125°
True anomaly
241.67217°
Mean anomaly
243.956°
Eccentric anomaly
242.81122°
Mean motion
3.07614 °/min
Orbital period
117.03 mins
BSTAR
0.0014783
Loading maneuver chart data...
Computing Atmospheric mass density...
Loading historical data...
Loading historical data...
Loading historical data...
Loading historical data...
Loading historical data...
Loading historical data...
Loading historical data...

Documentation

Showing up to 5 results
|